• In Deutschland
  • Länderverzeichnis
  • Für 7 Tage
  • Wassertemperatur
  • Satellitenkarten
  • Wetterkarte
  • Widgets
  • user-avatar
    Anmelden

    Stündliche Wetter La Rioja

    Heute, 17 August, Donnerstag

    Zeit Temperatur Niederschläge Wind Luftdruck Luftfeuchtigkeit
    00:00 +17°C° 0 mm 2 m/S 716 mmHg 52%
    01:00 +16°C° 0 mm 1 m/S 716 mmHg 52%
    02:00 +15°C° 0 mm 1 m/S 716 mmHg 56%
    03:00 +15°C° 0 mm 1 m/S 715 mmHg 57%
    04:00 +14°C° 0 mm 1 m/S 715 mmHg 59%
    05:00 +14°C° 0 mm 1 m/S 715 mmHg 60%
    06:00 +15°C° 0 mm 1 m/S 715 mmHg 57%
    07:00 +16°C° 0 mm 1 m/S 716 mmHg 54%
    08:00 +17°C° 0 mm 2 m/S 715 mmHg 45%
    09:00 +19°C° 0 mm 2 m/S 716 mmHg 40%
    10:00 +21°C° 0 mm 2 m/S 716 mmHg 34%
    11:00 +24°C° 0 mm 2 m/S 716 mmHg 29%
    12:00 +25°C° 0 mm 2 m/S 716 mmHg 26%
    13:00 +26°C° 0 mm 2 m/S 715 mmHg 23%
    14:00 +27°C° 0 mm 2 m/S 715 mmHg 20%
    15:00 +27°C° 0 mm 2 m/S 715 mmHg 19%
    16:00 +27°C° 0 mm 2 m/S 714 mmHg 18%
    17:00 +27°C° 0 mm 2 m/S 714 mmHg 17%
    18:00 +25°C° 0 mm 2 m/S 714 mmHg 20%
    19:00 +23°C° 0 mm 2 m/S 713 mmHg 22%
    20:00 +21°C° 0 mm 1 m/S 713 mmHg 25%
    21:00 +21°C° 0 mm 1 m/S 713 mmHg 24%
    22:00 +20°C° 0 mm 1 m/S 713 mmHg 24%
    23:00 +18°C° 0 mm 2 m/S 713 mmHg 23%

    Morgen, 18 August, Freitag

    Zeit Temperatur Niederschläge Wind Luftdruck Luftfeuchtigkeit
    00:00 +18°C° 0 mm 2 m/S 712 mmHg 24%
    01:00 +17°C° 0 mm 2 m/S 711 mmHg 25%
    02:00 +17°C° 0 mm 2 m/S 711 mmHg 26%
    03:00 +16°C° 0 mm 2 m/S 710 mmHg 27%
    04:00 +16°C° 0 mm 2 m/S 709 mmHg 29%
    05:00 +15°C° 0 mm 2 m/S 709 mmHg 30%
    06:00 +16°C° 0 mm 2 m/S 709 mmHg 29%
    07:00 +17°C° 0 mm 2 m/S 709 mmHg 27%
    08:00 +18°C° 0 mm 2 m/S 709 mmHg 25%
    09:00 +21°C° 0 mm 2 m/S 708 mmHg 20%
    10:00 +25°C° 0 mm 2 m/S 708 mmHg 16%
    11:00 +27°C° 0 mm 2 m/S 708 mmHg 12%
    12:00 +29°C° 0 mm 2 m/S 707 mmHg 10%
    13:00 +30°C° 0 mm 2 m/S 706 mmHg 8%
    14:00 +31°C° 0 mm 2 m/S 705 mmHg 6%
    15:00 +31°C° 0 mm 2 m/S 705 mmHg 6%
    16:00 +31°C° 0 mm 2 m/S 705 mmHg 6%
    17:00 +31°C° 0 mm 2 m/S 704 mmHg 7%
    18:00 +28°C° 0 mm 2 m/S 705 mmHg 8%
    19:00 +26°C° 0 mm 2 m/S 705 mmHg 10%
    20:00 +23°C° 0 mm 1 m/S 706 mmHg 12%
    21:00 +23°C° 0 mm 2 m/S 706 mmHg 13%
    22:00 +21°C° 0 mm 2 m/S 707 mmHg 13%
    23:00 +21°C° 0 mm 2 m/S 707 mmHg 14%

    übermorgen, 19 August, Samstag

    Zeit Temperatur Niederschläge Wind Luftdruck Luftfeuchtigkeit
    00:00 +20°C° 0 mm 2 m/S 708 mmHg 14%
    01:00 +20°C° 0 mm 2 m/S 708 mmHg 14%
    02:00 +19°C° 0 mm 2 m/S 708 mmHg 14%
    03:00 +18°C° 0 mm 3 m/S 709 mmHg 14%
    04:00 +18°C° 0 mm 3 m/S 709 mmHg 15%
    05:00 +17°C° 0 mm 4 m/S 710 mmHg 15%
    06:00 +17°C° 0 mm 4 m/S 711 mmHg 18%
    07:00 +17°C° 0 mm 4 m/S 712 mmHg 21%
    08:00 +17°C° 0 mm 4 m/S 713 mmHg 24%
    09:00 +18°C° 0 mm 4 m/S 714 mmHg 25%
    10:00 +20°C° 0 mm 4 m/S 714 mmHg 27%
    11:00 +21°C° 0 mm 4 m/S 714 mmHg 28%
    12:00 +22°C° 0 mm 3 m/S 714 mmHg 27%
    13:00 +24°C° 0 mm 3 m/S 714 mmHg 26%
    14:00 +24°C° 0 mm 3 m/S 713 mmHg 24%
    15:00 +24°C° 0 mm 3 m/S 714 mmHg 25%
    16:00 +24°C° 0 mm 3 m/S 714 mmHg 25%
    17:00 +24°C° 0 mm 3 m/S 714 mmHg 25%
    18:00 +23°C° 0 mm 2 m/S 715 mmHg 29%
    19:00 +21°C° 0 mm 2 m/S 716 mmHg 33%
    20:00 +19°C° 0 mm 2 m/S 717 mmHg 37%
    21:00 +19°C° 0 mm 2 m/S 718 mmHg 40%
    22:00 +18°C° 0 mm 2 m/S 719 mmHg 43%
    23:00 +17°C° 0 mm 2 m/S 719 mmHg 45%

    20 August, Sonntag

    Zeit Temperatur Niederschläge Wind Luftdruck Luftfeuchtigkeit
    00:00 +16°C° 0 mm 2 m/S 719 mmHg 48%
    01:00 +16°C° 0 mm 2 m/S 720 mmHg 50%
    02:00 +15°C° 0 mm 2 m/S 720 mmHg 53%
    03:00 +14°C° 0 mm 2 m/S 720 mmHg 54%
    04:00 +14°C° 0 mm 2 m/S 720 mmHg 56%
    05:00 +13°C° 0 mm 2 m/S 720 mmHg 57%
    06:00 +13°C° 0 mm 2 m/S 721 mmHg 56%
    07:00 +14°C° 0 mm 2 m/S 722 mmHg 54%
    08:00 +14°C° 0 mm 2 m/S 723 mmHg 52%
    09:00 +16°C° 0 mm 2 m/S 723 mmHg 47%
    10:00 +17°C° 0 mm 2 m/S 723 mmHg 42%
    11:00 +19°C° 0 mm 3 m/S 723 mmHg 37%
    12:00 +20°C° 0 mm 3 m/S 722 mmHg 35%
    13:00 +21°C° 0 mm 3 m/S 721 mmHg 32%
    14:00 +22°C° 0 mm 3 m/S 720 mmHg 29%
    15:00 +22°C° 0 mm 3 m/S 720 mmHg 29%
    16:00 +22°C° 0 mm 4 m/S 719 mmHg 29%
    17:00 +22°C° 0 mm 4 m/S 719 mmHg 28%
    18:00 +21°C° 0 mm 3 m/S 719 mmHg 31%
    19:00 +20°C° 0 mm 3 m/S 719 mmHg 33%
    20:00 +18°C° 0 mm 3 m/S 719 mmHg 35%
    21:00 +18°C° 0 mm 3 m/S 719 mmHg 36%
    22:00 +17°C° 0 mm 2 m/S 719 mmHg 36%
    23:00 +16°C° 0 mm 2 m/S 719 mmHg 36%

    21 August, Montag

    Zeit Temperatur Niederschläge Wind Luftdruck Luftfeuchtigkeit
    00:00 +16°C° 0 mm 2 m/S 719 mmHg 37%
    01:00 +15°C° 0 mm 2 m/S 718 mmHg 37%
    02:00 +15°C° 0 mm 2 m/S 718 mmHg 37%
    03:00 +14°C° 0 mm 2 m/S 717 mmHg 38%
    04:00 +14°C° 0 mm 2 m/S 717 mmHg 39%
    05:00 +13°C° 0 mm 2 m/S 717 mmHg 40%
    06:00 +14°C° 0 mm 2 m/S 717 mmHg 39%
    07:00 +15°C° 0 mm 2 m/S 717 mmHg 37%
    08:00 +15°C° 0 mm 2 m/S 717 mmHg 35%
    09:00 +17°C° 0 mm 2 m/S 717 mmHg 31%
    10:00 +19°C° 0 mm 2 m/S 717 mmHg 27%
    11:00 +21°C° 0 mm 2 m/S 717 mmHg 23%
    12:00 +23°C° 0 mm 2 m/S 716 mmHg 21%
    13:00 +24°C° 0 mm 2 m/S 715 mmHg 19%
    14:00 +26°C° 0 mm 3 m/S 714 mmHg 18%
    15:00 +26°C° 0 mm 2 m/S 714 mmHg 17%
    16:00 +26°C° 0 mm 2 m/S 713 mmHg 17%
    17:00 +26°C° 0 mm 2 m/S 713 mmHg 17%
    18:00 +24°C° 0 mm 2 m/S 713 mmHg 20%
    19:00 +23°C° 0 mm 2 m/S 713 mmHg 22%
    20:00 +20°C° 0 mm 2 m/S 713 mmHg 25%
    21:00 +19°C° 0 mm 2 m/S 713 mmHg 26%
    22:00 +19°C° 0 mm 2 m/S 713 mmHg 27%
    23:00 +18°C° 0 mm 2 m/S 712 mmHg 28%

    22 August, Dienstag

    Zeit Temperatur Niederschläge Wind Luftdruck Luftfeuchtigkeit
    00:00 +18°C° 0 mm 2 m/S 712 mmHg 29%
    01:00 +18°C° 0 mm 1 m/S 711 mmHg 30%
    02:00 +18°C° 0 mm 1 m/S 710 mmHg 31%
    03:00 +16°C° 0 mm 2 m/S 710 mmHg 31%
    04:00 +16°C° 0 mm 2 m/S 709 mmHg 31%
    05:00 +16°C° 0 mm 2 m/S 709 mmHg 31%
    06:00 +17°C° 0 mm 2 m/S 709 mmHg 29%
    07:00 +17°C° 0 mm 2 m/S 709 mmHg 27%
    08:00 +18°C° 0 mm 2 m/S 709 mmHg 25%
    09:00 +21°C° 0 mm 2 m/S 709 mmHg 22%
    10:00 +24°C° 0 mm 2 m/S 709 mmHg 18%
    11:00 +27°C° 0 mm 2 m/S 708 mmHg 15%
    12:00 +28°C° 0 mm 2 m/S 707 mmHg 14%
    13:00 +29°C° 0 mm 2 m/S 706 mmHg 12%
    14:00 +30°C° 0 mm 2 m/S 705 mmHg 11%
    15:00 +30°C° 0 mm 2 m/S 705 mmHg 11%
    16:00 +30°C° 0 mm 2 m/S 705 mmHg 11%
    17:00 +30°C° 0 mm 2 m/S 704 mmHg 12%
    18:00 +28°C° 0 mm 2 m/S 704 mmHg 14%
    19:00 +26°C° 0 mm 2 m/S 704 mmHg 16%
    20:00 +24°C° 0 mm 2 m/S 704 mmHg 18%
    21:00 +24°C° 0 mm 2 m/S 704 mmHg 18%
    22:00 +23°C° 0 mm 2 m/S 704 mmHg 18%
    23:00 +23°C° 0 mm 2 m/S 703 mmHg 18%
    Mehr zeigen